Hub


Voltar

 INFORMAÇÕES METEOROLÓGICAS

METAR FOR PAGN


ADDS - METARS form results

(1324 UTC 27 June 2019)
Data provider http://aviationweather.gov/metar/data/
 
METAR text: PAGN 271256Z AUTO 00000KT 10SM CLR 12/11 A2999 RMK AO2 SLP146 T01170111
Conditions at: PAGN (ANGOON SEAPLANE , AK, US) observed 1256 UTC 27 June 2019
Temperature: 11.7°C (53°F)
Dewpoint: 11.1°C (52°F) [RH = 96%]
Pressure (altimeter): 29.99 inches Hg (1015.7 mb)
[Sea-level pressure: 1014.6 mb]
Winds: calm
Visibility: 10 or more miles (16+ km)
Ceiling: at least 12,000 feet AGL
Clouds: sky clear below 12,000 feet AGL
Weather: automated observation with no human augmentation;
there may or may not be significant weather present at this time


 MAPA DO AEROPORTO


 INFORMAÇÕES DA PISTA

Pista NW Tamanho da pista 10000 ft Largura da pista 900 ft
Elevação da pista 0 ft Ranhura da pista 0 ft Proa da pista 0
Pista SE Tamanho da pista 10000 ft Largura da pista 900 ft
Elevação da pista 0 ft Ranhura da pista 0 ft Proa da pista 0

 FREQUÊNCIAS DO AEROPORTO


 AUXÍLIOS DE NAVEGAÇÃO PRÓXIMOS AO AEROPORTO